Year,Month,Day,Hour,Minute,Value (Times are PST for temperature in C)
2008,07,04,00,00,16.70
2008,07,04,00,01,16.70
2008,07,04,00,02,16.70
2008,07,04,00,03,16.70
2008,07,04,00,04,16.70
2008,07,04,00,05,16.70
2008,07,04,00,06,16.70
2008,07,04,00,07,16.70
2008,07,04,00,08,16.60
2008,07,04,00,09,16.60
2008,07,04,00,10,16.60
2008,07,04,00,11,16.60
2008,07,04,00,12,16.60
2008,07,04,00,13,16.50
2008,07,04,00,14,16.50
2008,07,04,00,15,16.50
2008,07,04,00,16,16.50
2008,07,04,00,17,16.50
2008,07,04,00,18,16.60
2008,07,04,00,19,16.60
2008,07,04,00,20,16.70
2008,07,04,00,21,16.70
2008,07,04,00,22,16.80
2008,07,04,00,23,16.90
2008,07,04,00,24,16.90
2008,07,04,00,25,17.00
2008,07,04,00,26,17.00
2008,07,04,00,27,17.10
2008,07,04,00,28,17.10
2008,07,04,00,29,17.10
2008,07,04,00,30,17.10
2008,07,04,00,31,17.10
2008,07,04,00,32,17.00
2008,07,04,00,33,17.00
2008,07,04,00,34,17.00
2008,07,04,00,35,17.00
2008,07,04,00,36,16.90
2008,07,04,00,37,16.80
2008,07,04,00,38,16.80
2008,07,04,00,39,16.70
2008,07,04,00,40,16.70
2008,07,04,00,41,16.70
2008,07,04,00,42,16.60
2008,07,04,00,43,16.60
2008,07,04,00,44,16.60
2008,07,04,00,45,16.50
2008,07,04,00,46,16.50
2008,07,04,00,47,16.50
2008,07,04,00,48,16.50
2008,07,04,00,49,16.50
2008,07,04,00,50,16.50
2008,07,04,00,51,16.60
2008,07,04,00,52,16.60
2008,07,04,00,53,16.50
2008,07,04,00,54,16.50
2008,07,04,00,55,16.50
2008,07,04,00,56,16.50
2008,07,04,00,57,16.40
2008,07,04,00,58,16.40
2008,07,04,00,59,16.40
2008,07,04,01,00,16.40
2008,07,04,01,01,16.30
2008,07,04,01,02,16.30
2008,07,04,01,03,16.30
2008,07,04,01,04,16.30
2008,07,04,01,05,16.30
2008,07,04,01,06,16.30
2008,07,04,01,07,16.30
2008,07,04,01,08,16.20
2008,07,04,01,09,16.20
2008,07,04,01,10,16.20
2008,07,04,01,11,16.20
2008,07,04,01,12,16.20
2008,07,04,01,13,16.10
2008,07,04,01,14,16.10
2008,07,04,01,15,16.10
2008,07,04,01,16,16.10
2008,07,04,01,17,16.00
2008,07,04,01,18,16.00
2008,07,04,01,19,16.00
2008,07,04,01,20,15.90
2008,07,04,01,21,15.90
2008,07,04,01,22,15.90
2008,07,04,01,23,15.90
2008,07,04,01,24,15.90
2008,07,04,01,25,15.80
2008,07,04,01,26,15.80
2008,07,04,01,27,15.80
2008,07,04,01,28,15.90
2008,07,04,01,29,15.80
2008,07,04,01,30,15.90
2008,07,04,01,31,15.80
2008,07,04,01,32,15.80
2008,07,04,01,33,15.90
2008,07,04,01,34,15.80
2008,07,04,01,35,15.80
2008,07,04,01,36,15.90
2008,07,04,01,37,15.90
2008,07,04,01,38,15.90
2008,07,04,01,39,15.90
2008,07,04,01,40,16.00
2008,07,04,01,41,16.00
2008,07,04,01,42,15.90
2008,07,04,01,43,15.90
2008,07,04,01,44,15.90
2008,07,04,01,45,15.90
2008,07,04,01,46,15.90
2008,07,04,01,47,15.90
2008,07,04,01,48,15.90
2008,07,04,01,49,15.90
2008,07,04,01,50,15.90
2008,07,04,01,51,15.90
2008,07,04,01,52,15.90
2008,07,04,01,53,15.90
2008,07,04,01,54,15.90
2008,07,04,01,55,15.80
2008,07,04,01,56,15.80
2008,07,04,01,57,15.80
2008,07,04,01,58,15.80
2008,07,04,01,59,15.70
2008,07,04,02,00,15.70
2008,07,04,02,01,15.70
2008,07,04,02,02,15.60
2008,07,04,02,03,15.60
2008,07,04,02,04,15.60
2008,07,04,02,05,15.60
2008,07,04,02,06,15.60
2008,07,04,02,07,15.60
2008,07,04,02,08,15.50
2008,07,04,02,09,15.50
2008,07,04,02,10,15.50
2008,07,04,02,11,15.50
2008,07,04,02,12,15.50
2008,07,04,02,13,15.40
2008,07,04,02,14,15.40
2008,07,04,02,15,15.40
2008,07,04,02,16,15.40
2008,07,04,02,17,15.40
2008,07,04,02,18,15.40
2008,07,04,02,19,15.40
2008,07,04,02,20,15.40
2008,07,04,02,21,15.30
2008,07,04,02,22,15.30
2008,07,04,02,23,15.30
2008,07,04,02,24,15.30
2008,07,04,02,25,15.30
2008,07,04,02,26,15.30
2008,07,04,02,27,15.30
2008,07,04,02,28,15.30
2008,07,04,02,29,15.30
2008,07,04,02,30,15.30
2008,07,04,02,31,15.40
2008,07,04,02,32,15.50
2008,07,04,02,33,15.50
2008,07,04,02,34,15.60
2008,07,04,02,35,15.60
2008,07,04,02,36,15.70
2008,07,04,02,37,15.70
2008,07,04,02,38,15.80
2008,07,04,02,39,15.80
2008,07,04,02,40,15.80
2008,07,04,02,41,15.80
2008,07,04,02,42,15.90
2008,07,04,02,43,15.90
2008,07,04,02,44,16.00
2008,07,04,02,45,16.10
2008,07,04,02,46,16.10
2008,07,04,02,47,16.20
2008,07,04,02,48,16.30
2008,07,04,02,49,16.30
2008,07,04,02,50,16.30
2008,07,04,02,51,16.30
2008,07,04,02,52,16.40
2008,07,04,02,53,16.40
2008,07,04,02,54,16.40
2008,07,04,02,55,16.40
2008,07,04,02,56,16.40
2008,07,04,02,57,16.50
2008,07,04,02,58,16.50
2008,07,04,02,59,16.50
2008,07,04,03,00,16.50
2008,07,04,03,01,16.50
2008,07,04,03,02,16.50
2008,07,04,03,03,16.50
2008,07,04,03,04,16.40
2008,07,04,03,05,16.40
2008,07,04,03,06,16.40
2008,07,04,03,07,16.40
2008,07,04,03,08,16.40
2008,07,04,03,09,16.30
2008,07,04,03,10,16.30
2008,07,04,03,11,16.30
2008,07,04,03,12,16.30
2008,07,04,03,13,16.30
2008,07,04,03,14,16.20
2008,07,04,03,15,16.20
2008,07,04,03,16,16.20
2008,07,04,03,17,16.20
2008,07,04,03,18,16.20
2008,07,04,03,19,16.10
2008,07,04,03,20,16.10
2008,07,04,03,21,16.10
2008,07,04,03,22,16.00
2008,07,04,03,23,16.00
2008,07,04,03,24,16.00
2008,07,04,03,25,16.00
2008,07,04,03,26,16.00
2008,07,04,03,27,16.10
2008,07,04,03,28,16.10
2008,07,04,03,29,16.10
2008,07,04,03,30,16.20
2008,07,04,03,31,16.20
2008,07,04,03,32,16.20
2008,07,04,03,33,16.20
2008,07,04,03,34,16.20
2008,07,04,03,35,16.20
2008,07,04,03,36,16.20
2008,07,04,03,37,16.20
2008,07,04,03,38,16.20
2008,07,04,03,39,16.30
2008,07,04,03,40,16.30
2008,07,04,03,41,16.30
2008,07,04,03,42,16.30
2008,07,04,03,43,16.30
2008,07,04,03,44,16.30
2008,07,04,03,45,16.30
2008,07,04,03,46,16.30
2008,07,04,03,47,16.30
2008,07,04,03,48,16.30
2008,07,04,03,49,16.30
2008,07,04,03,50,16.20
2008,07,04,03,51,16.20
2008,07,04,03,52,16.20
2008,07,04,03,53,16.10
2008,07,04,03,54,16.10
2008,07,04,03,55,16.00
2008,07,04,03,56,16.00
2008,07,04,03,57,16.00
2008,07,04,03,58,16.10
2008,07,04,03,59,16.10
2008,07,04,04,00,16.10
2008,07,04,04,01,16.10
2008,07,04,04,02,16.10
2008,07,04,04,03,16.10
2008,07,04,04,04,16.10
2008,07,04,04,05,16.10
2008,07,04,04,06,16.10
2008,07,04,04,07,16.10
2008,07,04,04,08,16.10
2008,07,04,04,09,16.10
2008,07,04,04,10,16.00
2008,07,04,04,11,16.00
2008,07,04,04,12,16.00
2008,07,04,04,13,15.90
2008,07,04,04,14,15.90
2008,07,04,04,15,15.90
2008,07,04,04,16,15.90
2008,07,04,04,17,15.90
2008,07,04,04,18,15.90
2008,07,04,04,19,16.00
2008,07,04,04,20,16.00
2008,07,04,04,21,16.00
2008,07,04,04,22,16.00
2008,07,04,04,23,16.10
2008,07,04,04,24,16.10
2008,07,04,04,25,16.10
2008,07,04,04,26,16.10
2008,07,04,04,27,16.10
2008,07,04,04,28,16.10
2008,07,04,04,29,16.10
2008,07,04,04,30,16.10
2008,07,04,04,31,16.10
2008,07,04,04,32,16.10
2008,07,04,04,33,16.10
2008,07,04,04,34,16.10
2008,07,04,04,35,16.10
2008,07,04,04,36,16.10
2008,07,04,04,37,16.10
2008,07,04,04,38,16.10
2008,07,04,04,39,16.00
2008,07,04,04,40,16.00
2008,07,04,04,41,16.00
2008,07,04,04,42,15.90
2008,07,04,04,43,15.90
2008,07,04,04,44,15.80
2008,07,04,04,45,15.80
2008,07,04,04,46,15.80
2008,07,04,04,47,15.70
2008,07,04,04,48,15.70
2008,07,04,04,49,15.60
2008,07,04,04,50,15.60
2008,07,04,04,51,15.60
2008,07,04,04,52,15.50
2008,07,04,04,53,15.50
2008,07,04,04,54,15.40
2008,07,04,04,55,15.40
2008,07,04,04,56,15.40
2008,07,04,04,57,15.30
2008,07,04,04,58,15.30
2008,07,04,04,59,15.20
2008,07,04,05,00,15.20
2008,07,04,05,01,15.20
2008,07,04,05,02,15.20
2008,07,04,05,03,15.10
2008,07,04,05,04,15.10
2008,07,04,05,05,15.10
2008,07,04,05,06,15.20
2008,07,04,05,07,15.30
2008,07,04,05,08,15.30
2008,07,04,05,09,15.30
2008,07,04,05,10,15.40
2008,07,04,05,11,15.50
2008,07,04,05,12,15.50
2008,07,04,05,13,15.50
2008,07,04,05,14,15.60
2008,07,04,05,15,15.60
2008,07,04,05,16,15.60
2008,07,04,05,17,15.70
2008,07,04,05,18,15.70
2008,07,04,05,19,15.70
2008,07,04,05,20,15.80
2008,07,04,05,21,15.80
2008,07,04,05,22,15.90
2008,07,04,05,23,15.90
2008,07,04,05,24,15.90
2008,07,04,05,25,16.00
2008,07,04,05,26,16.10
2008,07,04,05,27,16.10
2008,07,04,05,28,16.10
2008,07,04,05,29,16.10
2008,07,04,05,30,16.10
2008,07,04,05,31,16.10
2008,07,04,05,32,16.20
2008,07,04,05,33,16.20
2008,07,04,05,34,16.20
2008,07,04,05,35,16.20
2008,07,04,05,36,16.20
2008,07,04,05,37,16.20
2008,07,04,05,38,16.20
2008,07,04,05,39,16.20
2008,07,04,05,40,16.20
2008,07,04,05,41,16.10
2008,07,04,05,42,16.10
2008,07,04,05,43,16.10
2008,07,04,05,44,16.10
2008,07,04,05,45,16.10
2008,07,04,05,46,16.10
2008,07,04,05,47,16.10
2008,07,04,05,48,16.10
2008,07,04,05,49,16.10
2008,07,04,05,50,16.10
2008,07,04,05,51,16.10
2008,07,04,05,52,16.10
2008,07,04,05,53,16.10
2008,07,04,05,54,16.10
2008,07,04,05,55,16.10
2008,07,04,05,56,16.10
2008,07,04,05,57,16.10
2008,07,04,05,58,16.10
2008,07,04,05,59,16.10
2008,07,04,06,00,16.10
2008,07,04,06,01,16.10
2008,07,04,06,02,16.10
2008,07,04,06,03,16.10
2008,07,04,06,04,16.10
2008,07,04,06,05,16.10
2008,07,04,06,06,16.10
2008,07,04,06,07,16.10
2008,07,04,06,08,16.10
2008,07,04,06,09,16.10
2008,07,04,06,10,16.10
2008,07,04,06,11,16.10
2008,07,04,06,12,16.10
2008,07,04,06,13,16.20
2008,07,04,06,14,16.20
2008,07,04,06,15,16.20
2008,07,04,06,16,16.20
2008,07,04,06,17,16.20
2008,07,04,06,18,16.20
2008,07,04,06,19,16.20
2008,07,04,06,20,16.20
2008,07,04,06,21,16.20
2008,07,04,06,22,16.20
2008,07,04,06,23,16.20
2008,07,04,06,24,16.20
2008,07,04,06,25,16.20
2008,07,04,06,26,16.20
2008,07,04,06,27,16.20
2008,07,04,06,28,16.20
2008,07,04,06,29,16.20
2008,07,04,06,30,16.20
2008,07,04,06,31,16.20
2008,07,04,06,32,16.30
2008,07,04,06,33,16.30
2008,07,04,06,34,16.30
2008,07,04,06,35,16.30
2008,07,04,06,36,16.30
2008,07,04,06,37,16.30
2008,07,04,06,38,16.30
2008,07,04,06,39,16.30
2008,07,04,06,40,16.30
2008,07,04,06,41,16.40
2008,07,04,06,42,16.40
2008,07,04,06,43,16.40
2008,07,04,06,44,16.40
2008,07,04,06,45,16.40
2008,07,04,06,46,16.40
2008,07,04,06,47,16.40
2008,07,04,06,48,16.40
2008,07,04,06,49,16.50
2008,07,04,06,50,16.50
2008,07,04,06,51,16.50
2008,07,04,06,52,16.50
2008,07,04,06,53,16.50
2008,07,04,06,54,16.60
2008,07,04,06,55,16.60
2008,07,04,06,56,16.60
2008,07,04,06,57,16.60
2008,07,04,06,58,16.60
2008,07,04,06,59,16.60
2008,07,04,07,00,16.60
2008,07,04,07,01,16.60
2008,07,04,07,02,16.60
2008,07,04,07,03,16.60
2008,07,04,07,04,16.60
2008,07,04,07,05,16.60
2008,07,04,07,06,16.60
2008,07,04,07,07,16.60
2008,07,04,07,08,16.60
2008,07,04,07,09,16.60
2008,07,04,07,10,16.60
2008,07,04,07,11,16.60
2008,07,04,07,12,16.60
2008,07,04,07,13,16.60
2008,07,04,07,14,16.60
2008,07,04,07,15,16.60
2008,07,04,07,16,16.60
2008,07,04,07,17,16.70
2008,07,04,07,18,16.70
2008,07,04,07,19,16.70
2008,07,04,07,20,16.70
2008,07,04,07,21,16.70
2008,07,04,07,22,16.70
2008,07,04,07,23,16.70
2008,07,04,07,24,16.70
2008,07,04,07,25,16.70
2008,07,04,07,26,16.70
2008,07,04,07,27,16.70
2008,07,04,07,28,16.70
2008,07,04,07,29,16.70
2008,07,04,07,30,16.70
2008,07,04,07,31,16.70
2008,07,04,07,32,16.70
2008,07,04,07,33,16.70
2008,07,04,07,34,16.70
2008,07,04,07,35,16.70
2008,07,04,07,36,16.80
2008,07,04,07,37,16.80
2008,07,04,07,38,16.80
2008,07,04,07,39,16.80
2008,07,04,07,40,16.80
2008,07,04,07,41,16.80
2008,07,04,07,42,16.80
2008,07,04,07,43,16.80
2008,07,04,07,44,16.80
2008,07,04,07,45,16.80
2008,07,04,07,46,16.80
2008,07,04,07,47,16.80
2008,07,04,07,48,16.80
2008,07,04,07,49,16.80
2008,07,04,07,50,16.80
2008,07,04,07,51,16.80
2008,07,04,07,52,16.80
2008,07,04,07,53,16.80
2008,07,04,07,54,16.80
2008,07,04,07,55,16.80
2008,07,04,07,56,16.80
2008,07,04,07,57,16.80
2008,07,04,07,58,16.80
2008,07,04,07,59,16.80
2008,07,04,08,00,16.80
2008,07,04,08,01,16.80
2008,07,04,08,02,16.80
2008,07,04,08,03,16.80
2008,07,04,08,04,16.80
2008,07,04,08,05,16.90
2008,07,04,08,06,16.90
2008,07,04,08,07,16.90
2008,07,04,08,08,17.00
2008,07,04,08,09,17.00
2008,07,04,08,10,17.00
2008,07,04,08,11,17.10
2008,07,04,08,12,17.10
2008,07,04,08,13,17.10
2008,07,04,08,14,17.10
2008,07,04,08,15,17.10
2008,07,04,08,16,17.10
2008,07,04,08,17,17.20
2008,07,04,08,18,17.20
2008,07,04,08,19,17.20
2008,07,04,08,20,17.30
2008,07,04,08,21,17.30
2008,07,04,08,22,17.30
2008,07,04,08,23,17.30
2008,07,04,08,24,17.40
2008,07,04,08,25,17.40
2008,07,04,08,26,17.40
2008,07,04,08,27,17.40
2008,07,04,08,28,17.40
2008,07,04,08,29,17.40
2008,07,04,08,30,17.40
2008,07,04,08,31,17.40
2008,07,04,08,32,17.40
2008,07,04,08,33,17.40
2008,07,04,08,34,17.50
2008,07,04,08,35,17.50
2008,07,04,08,36,17.50
2008,07,04,08,37,17.50
2008,07,04,08,38,17.60
2008,07,04,08,39,17.60
2008,07,04,08,40,17.70
2008,07,04,08,41,17.70
2008,07,04,08,42,17.70
2008,07,04,08,43,17.70
2008,07,04,08,44,17.70
2008,07,04,08,45,17.70
2008,07,04,08,46,17.70
2008,07,04,08,47,17.70
2008,07,04,08,48,17.60
2008,07,04,08,49,17.60
2008,07,04,08,50,17.50
2008,07,04,08,51,17.40
2008,07,04,08,52,17.40
2008,07,04,08,53,17.40
2008,07,04,08,54,17.30
2008,07,04,08,55,17.30
2008,07,04,08,56,17.30
2008,07,04,08,57,17.30
2008,07,04,08,58,17.20
2008,07,04,08,59,17.20
2008,07,04,09,00,17.30
2008,07,04,09,01,17.30
2008,07,04,09,02,17.30
2008,07,04,09,03,17.30
2008,07,04,09,04,17.30
2008,07,04,09,05,17.30
2008,07,04,09,06,17.40
2008,07,04,09,07,17.40
2008,07,04,09,08,17.50
2008,07,04,09,09,17.50
2008,07,04,09,10,17.50
2008,07,04,09,11,17.50
2008,07,04,09,12,17.60
2008,07,04,09,13,17.60
2008,07,04,09,14,17.70
2008,07,04,09,15,17.70
2008,07,04,09,16,17.70
2008,07,04,09,17,17.70
2008,07,04,09,18,17.70
2008,07,04,09,19,17.70
2008,07,04,09,20,17.70
2008,07,04,09,21,17.80
2008,07,04,09,22,17.80
2008,07,04,09,23,17.90
2008,07,04,09,24,17.90
2008,07,04,09,25,18.00
2008,07,04,09,26,18.00
2008,07,04,09,27,18.00
2008,07,04,09,28,18.00
2008,07,04,09,29,18.00
2008,07,04,09,30,18.10
2008,07,04,09,31,18.10
2008,07,04,09,32,18.10
2008,07,04,09,33,18.20
2008,07,04,09,34,18.20
2008,07,04,09,35,18.20
2008,07,04,09,36,18.20
2008,07,04,09,37,18.20
2008,07,04,09,38,18.30
2008,07,04,09,39,18.30
2008,07,04,09,40,18.40
2008,07,04,09,41,18.40
2008,07,04,09,42,18.40
2008,07,04,09,43,18.40
2008,07,04,09,44,18.40
2008,07,04,09,45,18.40
2008,07,04,09,46,18.40
2008,07,04,09,47,18.30
2008,07,04,09,48,18.30
2008,07,04,09,49,18.20
2008,07,04,09,50,18.20
2008,07,04,09,51,18.20
2008,07,04,09,52,18.20
2008,07,04,09,53,18.20
2008,07,04,09,54,18.20
2008,07,04,09,55,18.20
2008,07,04,09,56,18.20
2008,07,04,09,57,18.20
2008,07,04,09,58,18.20
2008,07,04,09,59,18.30
2008,07,04,10,00,18.30
2008,07,04,10,01,18.30
2008,07,04,10,02,18.40
2008,07,04,10,03,18.40
2008,07,04,10,04,18.40
2008,07,04,10,05,18.40
2008,07,04,10,06,18.40
2008,07,04,10,07,18.40
2008,07,04,10,08,18.40
2008,07,04,10,09,18.40
2008,07,04,10,10,18.50
2008,07,04,10,11,18.50
2008,07,04,10,12,18.50
2008,07,04,10,13,18.50
2008,07,04,10,14,18.60
2008,07,04,10,15,18.60
2008,07,04,10,16,18.60
2008,07,04,10,17,18.70
2008,07,04,10,18,18.60
2008,07,04,10,19,18.60
2008,07,04,10,20,18.60
2008,07,04,10,21,18.60
2008,07,04,10,22,18.60
2008,07,04,10,23,18.60
2008,07,04,10,24,18.60
2008,07,04,10,25,18.60
2008,07,04,10,26,18.70
2008,07,04,10,27,18.80
2008,07,04,10,28,18.80
2008,07,04,10,29,18.80
2008,07,04,10,30,18.80
2008,07,04,10,31,18.80
2008,07,04,10,32,18.80
2008,07,04,10,33,18.80
2008,07,04,10,34,18.80
2008,07,04,10,35,18.80
2008,07,04,10,36,18.80
2008,07,04,10,37,18.80
2008,07,04,10,38,18.80
2008,07,04,10,39,18.80
2008,07,04,10,40,18.90
2008,07,04,10,41,18.90
2008,07,04,10,42,18.90
2008,07,04,10,43,18.90
2008,07,04,10,44,18.90
2008,07,04,10,45,18.90
2008,07,04,10,46,18.90
2008,07,04,10,47,18.90
2008,07,04,10,48,18.90
2008,07,04,10,49,18.90
2008,07,04,10,50,18.90
2008,07,04,10,51,18.90
2008,07,04,10,52,18.90
2008,07,04,10,53,19.00
2008,07,04,10,54,19.00
2008,07,04,10,55,19.10
2008,07,04,10,56,19.10
2008,07,04,10,57,19.10
2008,07,04,10,58,19.00
2008,07,04,10,59,19.00
2008,07,04,11,00,18.90
2008,07,04,11,01,18.90
2008,07,04,11,02,18.90
2008,07,04,11,03,18.80
2008,07,04,11,04,18.80
2008,07,04,11,05,18.80
2008,07,04,11,06,18.80
2008,07,04,11,07,18.80
2008,07,04,11,08,18.80
2008,07,04,11,09,18.80
2008,07,04,11,10,18.80
2008,07,04,11,11,18.90
2008,07,04,11,12,18.90
2008,07,04,11,13,18.90
2008,07,04,11,14,18.90
2008,07,04,11,15,18.90
2008,07,04,11,16,18.90
2008,07,04,11,17,18.80
2008,07,04,11,18,18.80
2008,07,04,11,19,18.80
2008,07,04,11,20,18.90
2008,07,04,11,21,18.90
2008,07,04,11,22,18.90
2008,07,04,11,23,19.00
2008,07,04,11,24,19.00
2008,07,04,11,25,19.10
2008,07,04,11,26,19.10
2008,07,04,11,27,19.10
2008,07,04,11,28,19.10
2008,07,04,11,29,19.10
2008,07,04,11,30,19.10
2008,07,04,11,31,19.10
2008,07,04,11,32,19.00
2008,07,04,11,33,18.90
2008,07,04,11,34,18.90
2008,07,04,11,35,18.80
2008,07,04,11,36,18.70
2008,07,04,11,37,18.60
2008,07,04,11,38,18.60
2008,07,04,11,39,18.50
2008,07,04,11,40,18.50
2008,07,04,11,41,18.50
2008,07,04,11,42,18.50
2008,07,04,11,43,18.40
2008,07,04,11,44,18.30
2008,07,04,11,45,18.20
2008,07,04,11,46,18.10
2008,07,04,11,47,18.10
2008,07,04,11,48,18.00
2008,07,04,11,49,17.90
2008,07,04,11,50,17.90
2008,07,04,11,51,17.80
2008,07,04,11,52,17.80
2008,07,04,11,53,17.80
2008,07,04,11,54,17.80
2008,07,04,11,55,17.80
2008,07,04,11,56,17.80
2008,07,04,11,57,17.80
2008,07,04,11,58,17.80
2008,07,04,11,59,17.80
2008,07,04,12,00,17.90
2008,07,04,12,01,17.90
2008,07,04,12,02,18.00
2008,07,04,12,03,18.10
2008,07,04,12,04,18.10
2008,07,04,12,05,18.20
2008,07,04,12,06,18.20
2008,07,04,12,07,18.20
2008,07,04,12,08,18.30
2008,07,04,12,09,18.30
2008,07,04,12,10,18.30
2008,07,04,12,11,18.30
2008,07,04,12,12,18.30
2008,07,04,12,13,18.30
2008,07,04,12,14,18.30
2008,07,04,12,15,18.30
2008,07,04,12,16,18.30
2008,07,04,12,17,18.30
2008,07,04,12,18,18.30
2008,07,04,12,19,18.30
2008,07,04,12,20,18.30
2008,07,04,12,21,18.20
2008,07,04,12,22,18.20
2008,07,04,12,23,18.20
2008,07,04,12,24,18.20
2008,07,04,12,25,18.20
2008,07,04,12,26,18.10
2008,07,04,12,27,18.20
2008,07,04,12,28,18.20
2008,07,04,12,29,18.20
2008,07,04,12,30,18.20
2008,07,04,12,31,18.20
2008,07,04,12,32,18.30
2008,07,04,12,33,18.30
2008,07,04,12,34,18.30
2008,07,04,12,35,18.40
2008,07,04,12,36,18.40
2008,07,04,12,37,18.50
2008,07,04,12,38,18.60
2008,07,04,12,39,18.60
2008,07,04,12,40,18.60
2008,07,04,12,41,18.70
2008,07,04,12,42,18.70
2008,07,04,12,43,18.70
2008,07,04,12,44,18.80
2008,07,04,12,45,18.80
2008,07,04,12,46,18.80
2008,07,04,12,47,18.90
2008,07,04,12,48,18.90
2008,07,04,12,49,19.00
2008,07,04,12,50,19.10
2008,07,04,12,51,19.20
2008,07,04,12,52,19.30
2008,07,04,12,53,19.40
2008,07,04,12,54,19.40
2008,07,04,12,55,19.40
2008,07,04,12,56,19.50
2008,07,04,12,57,19.50
2008,07,04,12,58,19.50
2008,07,04,12,59,19.50
2008,07,04,13,00,19.50
2008,07,04,13,01,19.50
2008,07,04,13,02,19.60
2008,07,04,13,03,19.60
2008,07,04,13,04,19.60
2008,07,04,13,05,19.70
2008,07,04,13,06,19.70
2008,07,04,13,07,19.80
2008,07,04,13,08,19.80
2008,07,04,13,09,19.80
2008,07,04,13,10,19.80
2008,07,04,13,11,19.80
2008,07,04,13,12,19.90
2008,07,04,13,13,20.00
2008,07,04,13,14,20.10
2008,07,04,13,15,20.20
2008,07,04,13,16,20.20
2008,07,04,13,17,20.30
2008,07,04,13,18,20.30
2008,07,04,13,19,20.30
2008,07,04,13,20,20.30
2008,07,04,13,21,20.30
2008,07,04,13,22,20.40
2008,07,04,13,23,20.40
2008,07,04,13,24,20.40
2008,07,04,13,25,20.40
2008,07,04,13,26,20.40
2008,07,04,13,27,20.40
2008,07,04,13,28,20.50
2008,07,04,13,29,20.60
2008,07,04,13,30,20.70
2008,07,04,13,31,20.90
2008,07,04,13,32,21.00
2008,07,04,13,33,21.20
2008,07,04,13,34,21.30
2008,07,04,13,35,21.30
2008,07,04,13,36,21.20
2008,07,04,13,37,21.10
2008,07,04,13,38,21.00
2008,07,04,13,39,20.90
2008,07,04,13,40,20.80
2008,07,04,13,41,20.80
2008,07,04,13,42,20.80
2008,07,04,13,43,20.80
2008,07,04,13,44,20.60
2008,07,04,13,45,20.60
2008,07,04,13,46,20.60
2008,07,04,13,47,20.60
2008,07,04,13,48,20.60
2008,07,04,13,49,20.60
2008,07,04,13,50,20.60
2008,07,04,13,51,20.70
2008,07,04,13,52,20.70
2008,07,04,13,53,20.70
2008,07,04,13,54,20.80
2008,07,04,13,55,20.80
2008,07,04,13,56,20.80
2008,07,04,13,57,20.80
2008,07,04,13,58,20.90
2008,07,04,13,59,20.90
2008,07,04,14,00,21.00
2008,07,04,14,01,21.00
2008,07,04,14,02,20.90
2008,07,04,14,03,20.80
2008,07,04,14,04,20.70
2008,07,04,14,05,20.70
2008,07,04,14,06,20.70
2008,07,04,14,07,20.60
2008,07,04,14,08,20.60
2008,07,04,14,09,20.70
2008,07,04,14,10,20.70
2008,07,04,14,11,20.60
2008,07,04,14,12,20.60
2008,07,04,14,13,20.60
2008,07,04,14,14,20.60
2008,07,04,14,15,20.60
2008,07,04,14,16,20.60
2008,07,04,14,17,20.70
2008,07,04,14,18,20.70
2008,07,04,14,19,20.80
2008,07,04,14,20,20.80
2008,07,04,14,21,20.80
2008,07,04,14,22,20.90
2008,07,04,14,23,20.90
2008,07,04,14,24,20.90
2008,07,04,14,25,21.00
2008,07,04,14,26,21.00
2008,07,04,14,27,21.10
2008,07,04,14,28,21.20
2008,07,04,14,29,21.20
2008,07,04,14,30,21.20
2008,07,04,14,31,21.20
2008,07,04,14,32,21.20
2008,07,04,14,33,21.20
2008,07,04,14,34,21.20
2008,07,04,14,35,21.10
2008,07,04,14,36,21.10
2008,07,04,14,37,21.10
2008,07,04,14,38,21.10
2008,07,04,14,39,21.10
2008,07,04,14,40,21.10
2008,07,04,14,41,21.00
2008,07,04,14,42,20.90
2008,07,04,14,43,20.70
2008,07,04,14,44,20.60
2008,07,04,14,45,20.60
2008,07,04,14,46,20.60
2008,07,04,14,47,20.60
2008,07,04,14,48,20.70
2008,07,04,14,49,20.70
2008,07,04,14,50,20.70
2008,07,04,14,51,20.70
2008,07,04,14,52,20.70
2008,07,04,14,53,20.60
2008,07,04,14,54,20.60
2008,07,04,14,55,20.60
2008,07,04,14,56,20.60
2008,07,04,14,57,20.60
2008,07,04,14,58,20.70
2008,07,04,14,59,20.70
2008,07,04,15,00,20.70
2008,07,04,15,01,20.60
2008,07,04,15,02,20.50
2008,07,04,15,03,20.50
2008,07,04,15,04,20.50
2008,07,04,15,05,20.50
2008,07,04,15,06,20.60
2008,07,04,15,07,20.70
2008,07,04,15,08,20.80
2008,07,04,15,09,20.90
2008,07,04,15,10,21.00
2008,07,04,15,11,21.00
2008,07,04,15,12,21.00
2008,07,04,15,13,21.00
2008,07,04,15,14,21.00
2008,07,04,15,15,21.00
2008,07,04,15,16,21.00
2008,07,04,15,17,21.10
2008,07,04,15,18,21.20
2008,07,04,15,19,21.20
2008,07,04,15,20,21.20
2008,07,04,15,21,21.20
2008,07,04,15,22,21.30
2008,07,04,15,23,21.30
2008,07,04,15,24,21.30
2008,07,04,15,25,21.30
2008,07,04,15,26,21.30
2008,07,04,15,27,21.20
2008,07,04,15,28,21.10
2008,07,04,15,29,21.10
2008,07,04,15,30,21.10
2008,07,04,15,31,21.00
2008,07,04,15,32,20.90
2008,07,04,15,33,20.90
2008,07,04,15,34,21.00
2008,07,04,15,35,21.00
2008,07,04,15,36,21.10
2008,07,04,15,37,21.10
2008,07,04,15,38,21.20
2008,07,04,15,39,21.20
2008,07,04,15,40,21.10
2008,07,04,15,41,21.10
2008,07,04,15,42,21.00
2008,07,04,15,43,20.90
2008,07,04,15,44,20.90
2008,07,04,15,45,20.70
2008,07,04,15,46,20.60
2008,07,04,15,47,20.60
2008,07,04,15,48,20.50
2008,07,04,15,49,20.50
2008,07,04,15,50,20.40
2008,07,04,15,51,20.40
2008,07,04,15,52,20.50
2008,07,04,15,53,20.60
2008,07,04,15,54,20.60
2008,07,04,15,55,20.70
2008,07,04,15,56,20.80
2008,07,04,15,57,20.80
2008,07,04,15,58,20.90
2008,07,04,15,59,21.00
2008,07,04,16,00,21.10
2008,07,04,16,01,21.20
2008,07,04,16,02,21.20
2008,07,04,16,03,21.20
2008,07,04,16,04,21.10
2008,07,04,16,05,21.10
2008,07,04,16,06,21.20
2008,07,04,16,07,21.30
2008,07,04,16,08,21.40
2008,07,04,16,09,21.40
2008,07,04,16,10,21.40
2008,07,04,16,11,21.30
2008,07,04,16,12,21.30
2008,07,04,16,13,21.30
2008,07,04,16,14,21.30
2008,07,04,16,15,21.30
2008,07,04,16,16,21.30
2008,07,04,16,17,21.40
2008,07,04,16,18,21.50
2008,07,04,16,19,21.50
2008,07,04,16,20,21.40
2008,07,04,16,21,21.40
2008,07,04,16,22,21.30
2008,07,04,16,23,21.10
2008,07,04,16,24,21.00
2008,07,04,16,25,20.90
2008,07,04,16,26,20.90
2008,07,04,16,27,21.00
2008,07,04,16,28,21.10
2008,07,04,16,29,21.20
2008,07,04,16,30,21.30
2008,07,04,16,31,21.40
2008,07,04,16,32,21.50
2008,07,04,16,33,21.60
2008,07,04,16,34,21.70
2008,07,04,16,35,21.60
2008,07,04,16,36,21.50
2008,07,04,16,37,21.40
2008,07,04,16,38,21.30
2008,07,04,16,39,21.20
2008,07,04,16,40,21.20
2008,07,04,16,41,21.30
2008,07,04,16,42,21.20
2008,07,04,16,43,21.20
2008,07,04,16,44,21.00
2008,07,04,16,45,21.00
2008,07,04,16,46,20.90
2008,07,04,16,47,20.90
2008,07,04,16,48,20.80
2008,07,04,16,49,20.70
2008,07,04,16,50,20.60
2008,07,04,16,51,20.60
2008,07,04,16,52,20.60
2008,07,04,16,53,20.50
2008,07,04,16,54,20.50
2008,07,04,16,55,20.40
2008,07,04,16,56,20.30
2008,07,04,16,57,20.20
2008,07,04,16,58,20.20
2008,07,04,16,59,20.10
2008,07,04,17,00,20.00
2008,07,04,17,01,19.90
2008,07,04,17,02,19.70
2008,07,04,17,03,19.60
2008,07,04,17,04,19.50
2008,07,04,17,05,19.40
2008,07,04,17,06,19.30
2008,07,04,17,07,19.20
2008,07,04,17,08,19.20
2008,07,04,17,09,19.20
2008,07,04,17,10,19.10
2008,07,04,17,11,19.10
2008,07,04,17,12,19.00
2008,07,04,17,13,19.00
2008,07,04,17,14,18.90
2008,07,04,17,15,18.90
2008,07,04,17,16,18.90
2008,07,04,17,17,18.90
2008,07,04,17,18,18.90
2008,07,04,17,19,18.90